GFSNIL_925_temp_000.txt.gz
Temp
8 9 9 7 8 7 7 6 6 6 6 6 6 6 6 6 7 7 8 8 8 9
7 7 7 7 6 6 6 6 6 5 4 4 4 4 5 5 6 6 7 7 7 7
7 6 6 6 5 5 5 5 4 4 4 4 3 4 4 4 5 5 6 6 7 7
6 6 5 5 5 4 4 4 3 3 3 3 3 3 3 3 3 4 4 5 6 6
6 5 5 5 4 4 3 3 2 2 2 2 2 2 2 2 2 3 3 4 4 5
5 5 5 4 4 3 2 2 2 2 2 1 1 1 1 1 1 2 2 2 3 4
5 4 4 3 3 2 2 1 1 1 1 1 0 0 0 0 0 0 -0 -0 -0 0
4 4 3 3 2 1 1 1 1 0 0 0 -0 -0 -0 -1 -1 -2 -2 -2 -2 -1
3 3 3 2 1 1 1 1 1 0 -0 -0 -1 -1 -3 -4 -4 -4 -4 -3 -2 -2
3 2 2 1 1 1 0 0 -0 -0 -1 -1 -2 -2 -4 -4 -5 -4 -4 -3 -3 -2
2 2 1 1 1 0 -0 -1 -1 -1 -2 -2 -3 -4 -4 -5 -5 -5 -4 -4 -3 -3
1 1 1 0 -0 -1 -1 -2 -2 -2 -3 -3 -4 -4 -5 -5 -5 -5 -4 -4 -4 -3
1 0 -0 -1 -1 -1 -2 -2 -3 -4 -5 -4 -5 -5 -5 -5 -5 -4 -4 -3 -3 -3
-0 -0 -1 -2 -2 -2 -3 -4 -5 -5 -5 -5 -5 -5 -4 -4 -4 -4 -3 -3 -2 -2

GFSNIL_925_temp_003.txt.gz
Temp
12 11 11 11 9 9 9 9 8 7 7 7 7 7 7 7 7 7 8 8 8 9
11 10 10 9 8 8 8 8 8 7 6 6 6 6 6 6 6 6 7 7 8 8
9 8 8 8 7 7 7 7 7 6 6 6 6 5 5 5 5 6 6 6 7 7
8 8 7 7 7 7 6 6 6 5 5 5 5 5 5 5 5 5 5 5 5 6
7 7 7 6 6 6 5 5 5 5 4 4 4 4 4 4 4 4 4 5 5 5
7 7 6 6 6 5 5 5 5 4 4 4 4 4 3 3 3 3 3 3 4 4
7 6 6 5 5 5 5 4 4 3 3 3 3 3 3 3 2 2 2 2 1 1
6 6 5 5 5 4 4 3 3 3 3 3 2 2 2 2 1 0 -0 -1 -1 -2
6 6 5 5 4 4 3 3 3 3 2 2 2 2 0 -1 -1 -2 -3 -3 -3 -3
6 5 4 4 4 3 3 2 2 2 2 1 1 -0 -1 -3 -3 -4 -4 -4 -4 -3
5 4 4 4 3 3 2 2 1 1 0 -0 -1 -2 -3 -4 -4 -5 -5 -4 -4 -3
4 4 3 3 3 2 1 1 0 -0 -1 -3 -3 -4 -4 -5 -5 -4 -4 -4 -4 -3
4 3 3 2 1 1 1 0 -1 -2 -3 -4 -4 -4 -4 -4 -4 -3 -3 -3 -3 -3
3 3 2 1 1 0 -0 -2 -3 -3 -4 -4 -4 -3 -3 -3 -3 -3 -3 -3 -3 -2

GFSNIL_925_temp_006.txt.gz
Temp
15 14 13 12 12 10 9 9 9 8 8 7 7 7 7 6 6 6 7 7 7 7
15 14 12 11 10 9 8 8 8 7 7 6 6 6 6 6 6 6 6 6 6 6
13 11 10 9 8 8 7 6 6 6 6 6 6 5 5 5 5 5 5 5 5 5
10 9 8 7 7 6 6 5 5 6 5 5 5 5 5 5 5 4 4 4 4 4
9 8 7 7 6 5 6 5 5 5 5 5 5 5 4 4 4 4 4 4 4 4
8 7 7 6 5 4 5 5 5 5 5 4 4 4 4 3 3 3 3 3 3 3
7 7 7 6 5 5 5 5 4 4 4 3 3 3 3 3 3 3 2 2 2 1
7 6 5 6 5 5 4 4 4 3 3 3 3 3 3 2 1 0 0 -0 -1 -1
5 6 6 5 5 4 4 4 3 3 3 2 2 2 1 0 -1 -2 -2 -2 -2 -3
4 6 5 5 4 4 4 3 3 2 2 1 1 0 -1 -2 -3 -3 -3 -4 -4 -4
6 5 5 4 4 3 3 2 2 1 1 -0 -1 -2 -3 -3 -4 -4 -4 -4 -4 -4
5 5 4 4 3 2 2 1 1 0 -1 -2 -3 -3 -3 -3 -4 -4 -4 -4 -4 -4
4 4 4 3 2 1 1 1 -0 -1 -2 -3 -3 -3 -3 -3 -3 -3 -3 -3 -3 -3
4 4 3 2 1 1 0 -1 -1 -2 -3 -3 -3 -3 -3 -3 -4 -4 -4 -4 -3 -3

GFSNIL_925_temp_009.txt.gz
Temp
16 16 16 15 13 12 10 9 8 8 7 6 5 5 4 4 6 6 6 6 6 6
15 14 13 12 11 9 8 8 7 6 5 4 4 4 5 6 6 6 5 5 5 5
13 11 10 9 8 7 6 6 5 4 4 3 5 5 5 5 5 5 5 5 4 4
10 10 9 8 7 7 6 5 4 4 4 4 5 5 5 5 5 4 4 4 4 4
9 8 8 7 6 6 5 5 4 5 5 5 5 5 4 4 4 3 3 3 3 3
8 8 7 6 6 6 5 4 5 5 5 4 4 4 3 3 3 3 3 3 2 2
8 7 7 6 5 5 5 5 5 4 4 4 3 3 3 2 2 2 1 1 0 0
5 5 5 5 5 5 5 5 4 4 3 3 3 2 2 1 0 -1 -1 -1 -1 -1
4 4 3 3 3 4 5 4 3 3 3 2 2 1 0 -1 -2 -2 -3 -3 -3 -3
3 3 3 3 4 4 4 3 2 2 1 1 -0 -1 -1 -2 -3 -3 -4 -4 -4 -4
4 4 5 5 4 3 3 2 1 1 0 -1 -1 -2 -2 -3 -3 -4 -4 -4 -4 -4
5 4 4 4 3 2 2 1 1 -0 -1 -2 -2 -3 -3 -4 -4 -4 -4 -4 -4 -4
4 4 3 2 2 1 1 -0 -1 -1 -2 -3 -3 -3 -4 -4 -4 -4 -4 -4 -4 -4
3 3 2 1 1 -0 -1 -1 -2 -3 -3 -4 -4 -4 -4 -4 -5 -5 -5 -5 -4 -4

GFSNIL_925_temp_012.txt.gz
Temp
15 15 15 15 14 12 11 9 7 6 6 5 4 4 3 3 4 4 5 6 5 5
14 14 14 13 11 9 8 6 5 5 4 4 3 4 3 4 5 5 5 5 5 5
13 13 12 10 8 7 6 5 5 5 4 3 3 4 4 5 5 5 5 4 4 4
10 10 9 8 7 7 6 6 6 4 5 5 5 5 5 4 4 4 4 3 3 3
9 8 7 7 6 6 6 6 5 4 4 5 5 4 4 4 3 3 3 2 2 2
7 7 7 6 6 5 5 5 5 5 5 4 4 4 3 3 3 2 2 2 1 1
6 6 6 5 5 5 5 5 5 5 4 4 3 3 2 2 1 1 0 -0 -0 -1
5 4 4 4 4 3 4 4 4 4 3 3 2 1 1 0 -0 -1 -2 -2 -2 -3
3 3 2 2 3 3 4 3 3 3 2 1 1 0 -1 -1 -2 -2 -3 -4 -4 -4
3 2 3 3 3 3 3 3 2 1 1 0 -1 -1 -2 -2 -3 -3 -4 -4 -4 -4
3 3 3 3 3 3 2 1 1 0 -1 -1 -2 -2 -3 -3 -4 -4 -4 -4 -4 -5
4 4 3 3 2 1 1 0 -0 -1 -2 -3 -3 -3 -4 -4 -4 -5 -5 -5 -5 -5
3 2 2 1 1 -0 -1 -1 -2 -2 -3 -3 -4 -4 -5 -5 -5 -5 -5 -5 -5 -5
2 1 1 0 -1 -1 -2 -2 -3 -3 -4 -4 -4 -5 -5 -5 -5 -5 -5 -5 -5 -5

GFSNIL_925_temp_015.txt.gz
Temp
13 13 13 13 13 12 9 8 6 5 4 3 3 4 4 4 4 3 2 2 4 4
12 12 13 12 12 10 7 5 4 4 4 4 4 3 3 3 4 4 4 4 4 4
11 11 11 11 10 8 6 5 5 5 5 5 4 3 3 4 4 4 4 4 3 3
10 10 9 8 8 6 5 6 6 6 5 4 4 4 4 4 4 3 3 3 3 2
9 7 6 6 6 6 6 6 6 5 5 5 4 4 4 3 3 3 2 2 2 2
8 6 6 5 5 5 5 5 5 5 4 4 4 3 3 2 2 2 1 1 1 0
6 5 5 4 4 3 3 3 3 4 3 3 3 2 2 1 1 1 -0 -1 -1 -1
4 3 3 2 2 2 1 3 3 3 3 2 2 1 1 0 -1 -1 -2 -2 -2 -3
3 2 1 1 2 2 2 2 2 2 1 1 0 -0 -1 -1 -2 -3 -3 -3 -4 -4
3 2 2 2 2 2 2 2 1 1 -0 -1 -1 -2 -2 -3 -3 -3 -4 -4 -5 -5
3 3 3 3 2 2 1 0 -0 -1 -2 -2 -3 -3 -3 -4 -4 -5 -5 -5 -5 -5
3 3 2 1 1 0 -0 -1 -2 -2 -3 -3 -3 -4 -4 -5 -5 -5 -5 -5 -5 -5
2 2 1 0 -0 -1 -2 -2 -3 -3 -4 -4 -4 -4 -4 -5 -5 -5 -6 -6 -5 -5
1 0 -0 -1 -2 -2 -3 -3 -4 -4 -4 -4 -4 -5 -5 -5 -5 -6 -6 -6 -5 -5

GFSNIL_925_temp_018.txt.gz
Temp
11 10 11 11 10 10 10 8 6 5 4 4 3 3 3 2 3 2 2 1 0 -0
10 10 10 11 11 9 8 6 4 4 4 4 4 4 3 2 1 0 0 -0 0 0
9 9 9 10 9 7 6 4 4 5 5 5 5 4 3 2 2 1 2 2 2 2
8 8 8 7 6 5 4 5 5 5 4 5 5 4 3 3 3 3 3 3 2 2
7 6 5 5 4 4 4 4 4 3 4 4 3 3 3 3 3 2 2 2 2 1
5 5 4 4 3 3 3 3 1 1 2 2 3 3 3 2 2 1 1 1 0 -0
4 3 2 1 1 1 1 1 1 2 2 2 2 2 1 1 0 -0 -1 -1 -1 -2
3 2 1 1 1 1 1 2 1 2 2 1 1 0 -0 -1 -1 -1 -2 -2 -2 -3
3 2 2 2 2 1 1 1 0 1 1 0 -0 -1 -1 -2 -3 -3 -3 -4 -4 -4
2 2 2 2 2 1 1 1 0 -0 -1 -1 -2 -3 -3 -4 -4 -4 -5 -5 -5 -5
3 3 3 2 1 1 0 -0 -1 -2 -2 -3 -3 -3 -4 -5 -5 -5 -5 -5 -5 -6
2 2 1 1 0 -0 -1 -2 -2 -3 -3 -4 -4 -4 -5 -5 -5 -5 -5 -5 -6 -6
1 1 0 -1 -1 -2 -3 -3 -3 -4 -4 -5 -5 -5 -5 -6 -6 -6 -6 -6 -6 -6
0 -1 -2 -2 -3 -3 -3 -4 -4 -5 -5 -5 -5 -5 -5 -6 -6 -6 -6 -6 -6 -5

GFSNIL_925_temp_024.txt.gz
Temp
11 11 11 10 9 9 9 9 8 7 6 6 6 5 4 4 3 2 1 1 1 0
11 10 9 9 8 8 7 7 6 6 6 5 4 4 3 3 2 1 2 2 1 1
9 9 8 7 7 7 6 6 5 5 4 3 2 2 2 2 2 2 2 2 2 2
9 8 7 7 6 6 5 4 3 2 1 1 1 1 1 1 2 2 3 3 3 4
8 7 7 6 5 5 4 2 1 1 1 2 2 2 2 3 3 3 3 3 3 3
7 6 6 5 3 2 2 2 2 3 3 3 3 3 3 3 2 2 2 2 2 2
6 5 4 3 3 3 4 4 3 3 2 2 2 2 2 1 1 1 1 1 1 1
5 3 2 2 2 3 3 3 3 2 2 2 2 2 -1 -1 -0 0 1 0 -0 -0
4 3 3 3 3 3 3 3 2 2 2 1 1 -1 -2 -3 -2 -1 -1 -0 -1 -1
4 4 4 3 3 3 2 2 2 1 1 0 0 -2 -3 -4 -3 -2 -1 -1 -1 -1
4 3 3 3 2 2 2 1 1 1 -0 -0 -1 -3 -5 -5 -4 -2 -2 -2 -2 -2
3 3 2 2 2 1 1 1 0 -1 -1 -2 -2 -4 -5 -6 -4 -3 -3 -4 -4 -4
2 2 2 1 1 0 0 -0 -1 -2 -3 -3 -3 -5 -6 -6 -5 -5 -4 -4 -4 -4
2 2 1 1 0 -0 -1 -1 -3 -4 -4 -4 -4 -5 -6 -6 -6 -6 -5 -5 -4 -4

GFSNIL_925_temp_027.txt.gz
Temp
13 13 12 12 11 10 10 9 9 9 7 6 5 4 4 4 3 2 2 2 1 1
12 12 11 11 10 9 9 8 8 5 4 4 4 3 3 2 3 3 3 3 2 2
11 11 11 10 9 8 8 5 4 3 3 3 3 3 2 2 2 1 1 2 2 2
11 10 10 9 8 7 6 5 4 3 2 2 3 3 3 3 3 3 3 3 3 3
10 10 9 8 6 5 5 5 4 3 3 4 4 4 4 4 4 4 4 4 4 4
9 8 6 6 5 5 4 4 4 3 3 4 4 4 4 4 4 4 4 3 3 3
7 6 5 4 3 3 3 3 3 4 4 5 4 4 4 4 2 2 2 2 2 2
5 5 4 4 4 4 4 5 5 4 4 4 4 3 1 1 -0 0 1 1 1 2
6 5 5 5 5 5 4 4 4 4 3 3 3 1 -0 -2 -2 -1 -1 0 1 1
6 5 5 4 4 4 4 4 3 3 3 2 2 -1 -2 -3 -3 -3 -2 -1 -0 0
5 4 4 4 4 4 3 3 3 2 2 1 1 -1 -3 -4 -4 -3 -2 -2 -2 -1
5 5 4 4 4 3 3 2 2 1 0 -1 -1 -2 -5 -5 -4 -4 -4 -3 -3 -3
5 4 4 4 3 3 2 2 1 -1 -2 -3 -3 -3 -4 -5 -5 -5 -5 -4 -4 -4
5 4 4 3 2 2 2 1 -2 -3 -3 -3 -3 -4 -4 -5 -5 -5 -5 -5 -5 -4

GFSNIL_925_temp_030.txt.gz
Temp
13 12 12 12 10 10 9 9 7 7 6 6 5 5 5 4 4 3 3 2 2 2
12 12 12 11 10 9 9 7 6 5 4 4 4 4 4 3 2 2 2 2 2 2
11 11 10 10 9 8 7 6 5 5 4 3 3 3 3 3 3 3 3 2 2 2
10 10 10 9 7 6 6 6 5 5 4 3 4 4 4 4 4 3 3 3 4 3
10 9 8 7 7 5 5 5 5 4 3 3 4 4 4 4 4 4 4 3 3 3
9 7 6 5 5 4 4 4 4 4 4 4 4 5 4 4 4 2 2 1 2 2
8 6 5 5 4 4 4 4 4 4 4 4 4 4 3 3 2 1 0 -0 0 1
7 6 5 5 5 5 5 4 4 4 4 4 3 2 1 1 -1 -1 -1 -1 -1 -0
7 6 6 5 5 5 4 4 4 4 3 3 3 1 -0 -1 -2 -2 -3 -3 -2 -1
7 6 5 5 5 4 4 4 3 3 3 2 1 -1 -1 -3 -3 -4 -3 -3 -3 -2
7 6 5 5 5 4 4 3 3 2 1 -0 -1 -1 -3 -3 -4 -4 -4 -4 -4 -4
7 6 5 5 4 3 3 3 2 1 -0 -1 -2 -2 -3 -4 -4 -5 -5 -5 -5 -4
5 5 5 4 3 3 3 2 1 -0 -1 -2 -2 -3 -3 -4 -5 -5 -5 -5 -5 -5
5 4 4 3 3 3 2 2 -0 -1 -2 -3 -3 -3 -4 -5 -6 -6 -6 -6 -6 -6

GFSNIL_925_temp_033.txt.gz
Temp
12 11 11 10 10 9 9 8 7 7 6 5 4 4 4 4 3 3 2 2 2 2
11 10 10 10 9 8 7 7 6 5 4 4 4 3 3 3 3 3 3 3 3 2
10 10 9 8 8 7 6 6 5 5 4 5 4 4 3 3 3 3 3 3 3 3
9 9 8 7 7 6 6 5 5 5 4 4 4 4 4 4 4 4 4 3 2 2
9 8 8 7 6 5 5 5 4 5 4 4 4 4 4 4 3 3 2 2 1 1
9 8 7 6 5 5 5 4 4 4 4 4 4 4 3 3 2 1 1 0 -0 -1
9 7 6 5 5 5 4 4 4 4 4 3 3 3 2 1 0 -0 -1 -2 -2 -2
9 7 6 5 5 5 4 4 4 4 3 3 2 1 0 -1 -2 -2 -3 -3 -3 -3
9 7 6 5 5 4 4 4 4 3 2 2 1 -0 -1 -2 -3 -3 -4 -4 -4 -4
7 6 5 5 4 4 4 3 3 2 1 1 -0 -1 -2 -3 -3 -4 -4 -4 -4 -5
6 5 4 2 4 4 3 3 3 1 0 -0 -1 -2 -2 -3 -3 -4 -4 -5 -5 -5
4 3 1 2 1 3 3 3 2 1 -0 -1 -2 -3 -3 -3 -4 -4 -5 -6 -6 -6
3 1 0 1 2 3 3 1 0 -1 -2 -2 -3 -3 -4 -4 -5 -6 -6 -7 -7 -7
2 2 1 2 3 2 1 -0 -1 -2 -2 -3 -4 -4 -5 -6 -7 -7 -7 -8 -7 -7

GFSNIL_925_temp_036.txt.gz
Temp
11 11 10 10 9 8 7 6 6 6 5 5 4 4 4 3 3 3 3 3 2 2
10 10 9 8 8 7 6 6 5 5 4 4 4 4 4 3 3 3 3 3 3 2
9 9 9 8 7 6 6 5 5 5 5 4 4 4 4 3 3 3 3 3 3 2
9 9 9 8 7 6 6 6 5 4 4 4 4 4 3 3 3 3 2 1 1 1
9 9 8 8 7 6 6 5 4 4 4 4 4 3 3 3 1 1 0 -0 -0 -1
9 9 8 7 6 6 5 5 4 4 4 3 3 3 2 1 0 -0 -1 -1 -2 -2
9 9 7 6 6 5 5 4 4 4 3 3 3 2 1 0 -1 -1 -2 -2 -3 -3
9 8 7 6 5 5 4 4 4 3 3 3 2 1 -0 -1 -2 -2 -3 -3 -4 -4
8 7 7 6 5 4 3 1 3 3 3 2 0 -1 -1 -2 -3 -3 -4 -4 -4 -4
6 6 5 4 3 1 0 0 3 2 1 -0 -1 -2 -3 -3 -3 -4 -4 -5 -5 -5
4 4 4 2 0 -0 -0 -0 1 1 -1 -1 -2 -3 -3 -4 -4 -5 -5 -5 -6 -6
4 3 3 1 0 2 1 1 0 -1 -2 -2 -3 -4 -4 -5 -5 -6 -6 -6 -7 -7
3 2 1 1 1 1 1 1 -1 -2 -2 -3 -4 -4 -5 -6 -7 -7 -8 -8 -8 -8
1 1 0 -0 0 0 0 -1 -1 -2 -3 -4 -4 -5 -6 -7 -7 -8 -8 -8 -8 -8

GFSNIL_925_temp_039.txt.gz
Temp
11 11 10 10 9 8 8 7 7 6 5 5 4 4 4 4 3 3 3 3 2 2
10 10 10 9 8 8 7 6 6 5 4 4 4 4 3 3 3 3 3 3 3 2
10 9 9 9 8 8 7 6 6 5 4 4 3 3 3 3 3 3 3 2 2 1
10 9 9 8 8 7 6 6 5 5 4 4 3 3 3 3 3 2 2 1 0 -0
10 9 8 8 7 7 6 5 5 4 4 3 3 3 3 2 1 1 0 -0 -0 -1
9 8 8 8 7 6 5 5 4 4 3 3 3 3 2 1 0 -0 -1 -1 -2 -3
8 7 7 7 6 6 5 4 3 3 2 3 2 2 1 0 -1 -1 -2 -3 -3 -4
7 7 6 6 6 5 4 3 2 1 0 2 1 1 -0 -1 -2 -3 -3 -3 -4 -4
6 6 5 5 5 4 2 1 0 -0 0 -1 -0 -1 -1 -2 -3 -4 -4 -4 -5 -5
4 4 4 4 3 2 2 2 -0 -0 -1 -1 -1 -2 -3 -3 -4 -4 -5 -5 -6 -6
4 3 3 2 1 0 -0 -0 -1 -1 -2 -2 -2 -3 -4 -4 -5 -6 -6 -6 -7 -7
3 2 2 1 0 -0 -0 -1 -1 -2 -2 -2 -3 -4 -5 -6 -6 -7 -7 -8 -8 -8
2 2 1 1 1 -0 -0 -0 -1 -2 -2 -3 -4 -5 -6 -6 -7 -8 -8 -8 -8 -8
1 0 0 0 -0 -0 -1 -2 -2 -2 -3 -4 -5 -5 -6 -7 -7 -8 -8 -8 -8 -8

GFSNIL_925_temp_042.txt.gz
Temp
11 11 10 10 9 9 8 8 8 7 7 6 5 4 4 3 3 3 3 3 2 2
10 10 10 9 9 8 8 8 7 6 5 5 4 4 3 3 3 3 3 3 2 2
10 10 9 9 9 8 8 7 6 5 5 4 3 3 3 3 3 2 2 2 1 0
9 9 8 8 8 8 7 6 5 5 4 4 3 3 3 3 2 2 2 0 -0 -0
8 8 7 7 7 6 6 5 4 4 4 3 3 3 3 2 2 1 -0 -1 -1 -1
8 8 7 7 7 6 6 5 4 4 3 2 2 2 2 1 0 -1 -1 -2 -2 -3
7 6 6 6 6 6 6 4 3 2 2 1 -0 0 0 -1 -1 -2 -2 -3 -3 -4
6 6 5 5 5 4 3 2 1 1 0 -1 -0 -0 -1 -2 -2 -2 -3 -4 -4 -4
5 5 4 4 3 2 2 1 1 -1 -1 -1 -1 -1 -2 -3 -3 -4 -4 -5 -5 -6
4 4 3 2 2 1 -0 -0 -0 -1 -1 -1 -2 -2 -3 -3 -4 -5 -5 -6 -7 -7
3 3 2 2 1 0 0 0 -1 -1 -2 -2 -2 -3 -3 -4 -5 -6 -6 -7 -8 -8
2 2 2 1 1 0 -0 -1 -1 -2 -2 -2 -3 -4 -5 -6 -6 -7 -7 -8 -8 -8
2 1 1 -0 -0 -0 -1 -1 -2 -2 -2 -3 -4 -5 -6 -6 -7 -7 -8 -8 -8 -8
1 -0 -1 -1 -1 -1 -1 -2 -2 -3 -3 -4 -5 -5 -6 -7 -7 -7 -8 -8 -9 -8

GFSNIL_925_temp_045.txt.gz
Temp
11 10 10 10 9 9 9 8 8 7 6 6 5 5 4 3 3 2 2 2 2 2
10 10 9 9 9 8 8 7 7 6 6 5 5 4 4 3 3 3 3 2 2 1
9 9 8 8 8 7 7 6 6 6 5 5 5 4 3 3 3 3 2 1 0 0
9 8 8 8 7 7 6 6 6 5 5 4 3 3 3 2 2 1 1 -0 -0 -0
9 8 7 7 6 6 6 6 5 3 2 2 2 2 1 1 1 1 -0 -1 -1 -1
8 7 6 6 5 5 4 4 4 2 1 1 1 1 -0 -0 0 -1 -1 -2 -2 -2
6 6 5 5 4 4 3 2 2 1 1 0 -0 -1 -2 -1 -1 -2 -2 -3 -3 -3
5 5 5 4 4 3 2 1 0 -0 -1 -1 -1 -1 -1 -2 -2 -2 -3 -3 -4 -4
5 4 4 3 3 1 0 -0 0 0 -1 -1 -1 -2 -2 -2 -2 -3 -4 -4 -4 -5
4 3 3 2 1 1 0 0 0 -1 -1 -2 -2 -2 -2 -3 -4 -4 -5 -5 -5 -5
2 2 1 1 1 0 -0 -0 -0 -1 -2 -2 -3 -3 -3 -4 -5 -5 -5 -6 -6 -6
1 1 0 0 -0 -0 -1 -1 -1 -2 -3 -3 -3 -3 -4 -5 -5 -6 -6 -6 -7 -7
0 -0 -0 -1 -1 -1 -1 -2 -2 -3 -3 -3 -3 -4 -5 -6 -6 -6 -6 -6 -7 -7
-1 -1 -1 -1 -1 -1 -2 -3 -3 -3 -3 -3 -4 -4 -5 -6 -6 -6 -6 -6 -7 -7

GFSNIL_925_temp_048.txt.gz
Temp
12 12 12 11 11 11 10 10 9 8 8 7 7 6 6 5 5 5 5 4 4 4
10 10 10 10 9 9 9 8 8 7 7 7 6 6 5 5 5 5 4 4 3 3
10 10 9 9 9 8 8 8 7 7 7 7 6 6 5 5 5 4 4 4 3 3
10 9 9 8 8 7 7 7 7 7 6 6 6 5 5 4 4 3 3 3 3 2
9 9 8 8 7 7 6 6 6 5 5 5 5 4 3 3 2 2 2 3 2 2
9 8 8 7 7 6 5 5 5 4 4 4 3 3 2 1 -0 0 1 1 1 1
8 7 7 6 6 5 5 4 4 4 3 1 0 -0 -1 -0 1 1 1 1 0 0
7 7 6 5 5 4 4 4 3 2 1 0 0 1 1 1 1 1 1 0 -0 -1
6 6 5 5 4 4 4 4 3 2 2 2 1 -0 -1 -1 0 0 -0 -1 -1 -2
5 5 5 4 4 4 3 3 2 2 2 1 1 -1 -2 -2 -1 -1 -1 -2 -2 -2
4 4 4 4 4 3 3 2 1 0 0 1 0 -2 -2 -3 -2 -2 -2 -3 -3 -3
3 3 4 4 3 3 2 2 2 -0 -0 -0 -0 -3 -3 -4 -3 -3 -3 -3 -3 -4
3 3 3 2 2 2 1 1 1 1 -0 -1 -1 -3 -4 -4 -4 -4 -4 -4 -3 -4
2 2 1 -0 0 1 1 -1 -2 -2 -2 -2 -2 -3 -4 -5 -5 -4 -5 -4 -4 -4

GFSNIL_925_temp_051.txt.gz
Temp
13 14 13 13 12 12 12 11 11 10 9 9 9 9 8 7 6 6 5 5 5 5
12 12 12 12 11 11 10 10 10 9 9 9 8 8 8 7 6 6 6 5 4 4
10 12 11 11 11 10 9 9 9 8 8 8 8 8 8 7 6 5 4 5 5 4
12 11 11 10 10 9 9 8 8 7 7 7 7 7 7 6 5 5 5 4 4 4
11 11 10 10 9 9 8 7 7 7 7 6 6 6 6 5 5 4 3 3 3 2
11 11 10 9 9 8 7 7 6 6 6 6 5 3 3 2 2 2 2 2 2 2
10 10 9 8 8 7 7 6 6 6 5 3 2 2 2 2 1 1 2 2 1 2
9 9 8 8 7 6 6 6 6 6 4 3 2 2 2 2 2 2 2 2 2 1
8 8 8 7 7 6 6 6 6 4 3 3 2 1 1 0 1 1 2 2 1 0
7 7 7 7 6 6 6 5 4 3 2 2 2 -0 0 -1 -1 0 1 0 0 -0
7 6 6 6 6 6 6 5 3 2 2 0 -0 -1 -1 -2 -2 0 0 -0 -1 -1
6 5 5 5 5 5 5 4 2 2 2 1 -1 -1 -1 -2 -2 -1 -1 -2 -1 -2
5 5 5 4 3 3 3 4 2 1 1 -1 -0 -2 -2 -3 -3 -3 -3 -2 -2 -2
4 4 4 3 3 2 3 2 -0 -1 -1 -1 -1 -2 -3 -3 -4 -4 -3 -3 -3 -3

GFSNIL_925_temp_054.txt.gz
Temp
14 14 14 13 13 12 12 11 11 10 10 9 9 9 8 8 8 7 6 5 5 5
13 12 12 12 12 11 11 10 10 9 9 8 8 8 8 8 8 7 6 5 4 4
12 12 12 11 11 11 10 9 9 8 8 8 7 7 7 7 7 6 5 5 4 4
11 10 11 11 11 10 9 9 8 8 7 7 7 7 7 6 6 5 4 3 3 3
11 11 11 11 10 10 9 8 7 7 7 6 6 5 4 3 3 3 3 2 2 2
12 11 11 10 10 9 8 7 7 6 6 6 5 4 3 2 2 2 2 2 2 2
11 10 10 9 9 8 7 7 6 6 6 5 4 3 3 2 2 2 2 2 2 2
10 9 9 8 8 7 7 6 6 6 5 4 3 3 2 2 2 2 1 1 2 2
9 8 8 7 7 7 7 6 6 5 4 3 3 3 2 1 1 1 1 1 1 1
8 7 7 7 6 6 6 6 6 4 3 3 2 1 0 -2 0 -0 -0 0 0 -0
7 7 6 6 6 6 6 5 5 4 3 2 2 1 -1 -2 -1 -1 -0 -0 -1 -1
6 6 5 5 5 4 3 3 4 3 2 1 1 -0 -2 -2 -2 -2 -2 -2 -2 -2
5 5 5 5 4 4 3 3 3 1 1 0 -1 -1 -2 -2 -3 -3 -3 -3 -3 -3
5 5 5 4 4 4 3 3 1 0 0 -0 -1 -1 -2 -2 -3 -3 -4 -4 -3 -3

GFSNIL_925_temp_057.txt.gz
Temp
14 14 14 13 12 12 12 11 10 10 10 9 9 8 8 8 7 7 7 6 5 5
14 13 13 12 12 10 11 10 10 9 9 8 8 7 7 7 7 6 6 5 5 4
13 12 11 11 10 11 10 10 9 8 8 7 7 7 6 6 5 5 4 4 4 4
12 11 11 11 11 10 10 9 8 8 7 7 6 6 6 5 4 3 3 2 2 2
11 11 11 11 10 10 9 8 8 7 7 6 6 6 5 4 3 2 2 2 2 2
11 10 11 10 9 9 8 8 7 7 6 6 5 5 4 4 3 2 2 2 2 1
11 10 9 9 9 8 8 7 7 6 6 5 4 4 3 3 3 2 2 1 1 1
9 9 8 8 8 7 7 7 7 6 5 5 4 3 3 2 2 1 1 1 1 1
9 8 7 7 7 6 6 6 6 6 5 4 3 3 2 1 1 -0 -2 0 0 0
8 7 7 6 5 5 6 5 5 4 4 3 3 2 2 1 -0 -2 -2 -1 -1 -1
7 7 6 5 5 5 5 4 4 3 3 2 2 2 1 0 -1 -2 -1 -1 -1 -2
6 5 5 5 5 5 4 4 3 2 2 2 1 0 -0 -1 -1 -2 -2 -2 -2 -2
4 4 4 5 4 4 4 3 3 2 2 1 0 -1 -1 -2 -2 -2 -2 -2 -3 -3
4 4 4 4 3 2 2 3 2 1 0 0 -0 -0 -1 -2 -3 -2 -3 -3 -3 -4

GFSNIL_925_temp_060.txt.gz
Temp
14 14 14 13 12 11 11 10 10 8 9 9 8 8 7 7 7 6 6 6 5 5
14 14 12 12 11 10 10 10 9 9 9 9 8 7 7 6 6 6 5 5 4 4
13 12 12 11 11 10 10 10 9 9 9 8 7 7 6 6 5 5 4 4 3 3
12 11 10 10 10 10 10 9 9 8 8 7 7 6 6 5 5 4 4 3 2 2
11 9 9 10 10 10 9 8 8 8 7 7 6 6 5 5 4 4 3 2 2 2
9 10 10 10 9 8 8 8 7 7 7 6 6 6 4 4 4 3 2 2 2 1
10 10 9 8 8 8 7 7 7 7 6 6 6 4 4 3 3 2 2 1 1 1
9 9 8 8 8 7 7 6 6 6 6 6 4 4 3 3 2 2 2 1 0 -1
8 8 8 7 7 7 6 5 5 5 5 4 4 3 3 2 2 1 0 0 -1 -1
7 7 7 7 6 5 5 5 4 4 4 3 3 3 2 1 1 0 -1 -2 -1 -1
7 7 6 5 5 5 5 4 4 4 3 3 2 2 1 1 -0 -1 -1 -2 -2 -2
6 5 5 5 4 4 4 4 4 3 3 3 2 1 0 -1 -1 -2 -2 -2 -2 -2
5 5 4 4 4 4 3 2 2 2 2 2 1 1 0 -1 -1 -2 -2 -2 -3 -3
5 4 4 4 4 3 3 2 1 1 0 0 1 0 -1 -1 -2 -2 -3 -3 -3 -3

GFSNIL_925_temp_063.txt.gz
Temp
15 14 14 13 12 11 11 10 11 10 9 9 8 8 7 7 6 6 6 5 5 4
15 14 12 11 11 10 9 9 9 9 8 8 8 7 7 6 6 5 5 4 4 4
14 13 12 11 10 9 8 8 8 8 8 8 7 7 6 6 5 5 5 4 3 3
12 11 10 9 9 8 8 8 8 8 8 8 7 6 6 5 5 5 4 3 3 2
11 10 10 10 8 9 9 8 8 8 8 7 7 6 6 5 5 4 3 3 2 2
10 10 9 9 9 9 8 8 8 7 7 7 6 6 6 5 4 3 3 2 2 2
9 9 9 9 8 8 8 7 7 6 6 6 6 5 5 4 3 3 2 2 1 1
9 9 8 8 8 8 7 6 6 5 5 5 5 4 4 3 3 2 2 1 1 0
8 8 7 8 7 6 6 6 5 5 5 4 4 4 3 3 2 2 1 1 0 -1
7 8 7 6 6 6 5 5 5 4 4 4 3 3 2 2 1 1 0 -1 -1 -1
7 7 6 5 5 5 5 4 4 4 3 3 3 3 2 2 1 0 -0 -1 -2 -2
6 5 5 5 5 4 4 4 3 3 2 2 2 2 1 1 0 -1 -1 -2 -3 -3
5 5 5 5 4 4 3 3 3 2 2 2 1 0 0 -0 -1 -2 -2 -2 -3 -3
5 5 4 4 4 3 3 3 2 2 1 0 -0 -0 -0 -1 -2 -2 -2 -2 -2 -2

GFSNIL_925_temp_066.txt.gz
Temp
13 14 14 14 13 12 11 10 10 9 8 8 8 8 8 7 6 6 5 5 5 5
14 13 13 13 12 11 10 10 9 9 8 9 9 8 7 7 6 6 5 5 4 4
14 12 13 12 11 10 9 9 9 8 8 8 8 7 7 6 5 5 4 4 4 3
13 12 11 10 10 10 9 9 8 8 8 8 7 6 6 5 5 4 4 4 3 3
10 10 9 9 9 8 8 7 7 8 8 7 6 6 6 5 5 4 4 3 3 2
10 10 10 10 9 8 8 7 8 7 6 6 6 6 5 5 5 4 3 3 2 2
10 10 10 9 8 8 8 7 7 6 6 6 5 5 5 5 4 3 3 2 2 1
8 8 8 7 7 7 7 7 6 6 5 5 5 4 4 4 3 3 2 2 1 1
7 7 7 7 7 6 6 6 5 5 4 4 4 4 3 3 2 2 2 1 1 0
7 7 7 6 6 6 5 5 5 4 4 3 3 3 3 3 2 2 1 1 0 -1
7 7 6 6 6 5 5 4 4 4 3 3 3 2 2 2 1 1 1 0 -1 -1
6 6 6 5 5 5 4 4 3 3 3 2 2 2 2 1 0 -0 -0 -1 -1 -2
5 5 5 5 4 4 4 3 3 3 3 2 2 2 1 0 -1 -2 -2 -1 -1 -2
5 5 4 4 4 4 3 3 3 3 3 2 2 2 1 0 -1 -2 -3 -4 -2 -1

GFSNIL_925_temp_072.txt.gz
Temp
14 14 14 13 13 14 14 13 12 11 11 10 10 9 7 7 8 8 8 8 7 8
14 13 13 13 13 14 14 13 11 10 8 10 9 8 7 8 8 8 7 7 7 7
14 13 12 13 14 13 12 11 9 8 9 9 8 7 7 8 8 7 7 7 7 6
14 12 12 12 12 11 10 9 8 10 9 8 7 8 8 8 8 7 7 7 6 6
13 11 10 9 9 9 8 8 9 8 7 8 9 8 8 8 8 7 7 7 6 6
10 9 8 7 7 7 7 7 7 7 8 8 8 8 8 7 7 7 6 6 6 6
8 7 7 7 7 7 7 6 7 6 7 7 8 7 7 7 6 6 6 6 5 5
6 7 8 7 7 7 6 7 6 7 8 7 7 7 6 6 6 5 5 5 5 5
6 7 6 5 5 6 6 5 7 7 7 7 6 6 4 4 4 5 5 5 5 5
6 6 5 5 6 6 6 7 7 6 6 6 6 5 4 4 3 4 4 4 4 4
5 6 6 6 6 6 7 6 6 6 6 5 5 4 4 3 2 3 4 4 4 3
6 6 6 6 6 7 6 6 6 6 5 5 5 4 3 2 2 3 3 3 3 3
7 6 6 7 6 6 5 5 5 5 4 4 3 3 2 0 0 0 1 1 1 1
6 6 6 5 5 5 5 4 3 1 1 1 1 1 -0 -1 -2 -1 -1 -1 -1 -1

GFSNIL_925_temp_075.txt.gz
Temp
17 17 15 15 14 13 13 14 14 13 13 12 11 10 10 10 9 9 9 9 9 9
16 16 16 16 14 13 14 14 14 13 13 11 9 9 9 8 8 9 9 9 9 8
16 16 15 15 14 13 14 14 14 12 11 8 9 8 8 7 9 10 9 9 9 8
15 15 14 13 13 13 12 13 11 10 9 8 9 8 8 9 9 10 9 9 8 8
14 14 13 12 11 11 10 10 9 8 7 7 7 8 8 9 9 9 9 9 8 8
13 13 12 12 12 11 9 8 7 7 7 6 7 8 9 9 9 9 9 8 8 8
11 9 8 8 8 8 8 7 7 7 6 6 8 9 9 9 9 8 8 8 7 7
8 8 8 8 8 8 7 7 6 7 7 7 9 9 9 8 8 7 7 7 7 7
7 6 6 6 6 6 6 7 7 7 9 9 8 8 7 6 5 6 6 6 6 6
6 5 6 6 6 6 7 7 8 8 8 8 7 7 6 5 4 4 5 5 5 5
6 6 6 7 8 8 8 8 8 8 7 7 7 6 5 4 3 3 4 4 5 5
8 7 7 7 8 7 8 8 8 7 7 7 6 5 4 3 3 3 3 3 3 3
7 8 8 7 8 8 7 7 7 7 6 5 4 4 2 1 0 0 0 1 1 1
8 7 8 8 7 7 7 6 5 3 2 2 3 2 0 -1 -1 -1 -1 -1 -1 -1

GFSNIL_925_temp_078.txt.gz
Temp
18 19 18 16 14 14 13 13 14 14 14 14 13 12 11 11 10 9 9 10 10 9
18 18 17 15 14 14 13 13 13 14 14 13 12 11 11 10 9 9 8 8 9 9
18 17 17 15 15 14 14 13 14 13 13 12 11 10 9 8 8 7 8 9 9 9
17 17 16 16 15 14 13 13 12 11 10 9 9 8 9 8 8 9 9 9 9 9
17 16 15 14 14 13 13 12 11 11 9 8 8 8 7 7 7 7 9 9 9 9
15 15 13 13 13 12 11 11 10 10 9 8 7 7 6 7 7 8 9 9 9 8
13 13 12 11 10 10 10 10 10 9 8 8 8 7 7 8 9 9 9 8 8 8
10 10 10 10 10 9 9 9 9 7 7 8 7 8 8 9 8 8 7 7 7 7
9 9 8 8 7 8 8 7 7 7 7 8 8 9 8 8 7 7 6 5 5 6
8 7 6 6 6 7 7 7 7 7 8 8 8 8 7 7 6 5 4 4 4 4
6 5 6 7 7 7 7 7 8 8 8 8 7 7 6 5 4 4 3 3 3 3
6 6 6 7 7 8 8 8 8 8 8 7 6 4 4 3 2 2 2 2 1 1
8 8 8 8 8 8 8 8 8 7 6 5 4 3 2 2 1 -0 -1 -1 -1 -1
8 8 8 8 8 8 8 7 6 5 4 3 3 1 1 0 -1 -2 -3 -3 -3 -3

GFSNIL_925_temp_081.txt.gz
Temp
18 18 18 17 16 15 15 15 15 14 14 14 14 14 13 13 12 12 11 10 10 10
18 18 18 17 16 15 15 15 15 14 14 14 14 13 12 10 9 10 9 9 9 9
18 18 18 17 16 15 15 14 14 13 13 13 11 10 9 9 8 8 8 8 7 8
17 18 18 18 15 14 14 13 13 12 12 12 10 11 9 8 8 8 7 7 7 8
17 17 18 16 15 14 13 13 13 12 12 11 11 9 8 9 8 8 7 7 8 9
17 16 14 15 14 13 13 12 12 12 11 11 9 8 8 8 8 7 8 8 8 8
15 16 14 15 14 13 12 12 11 11 10 9 9 8 8 8 7 8 8 8 8 8
14 13 13 12 13 12 12 11 10 9 9 8 8 8 7 8 7 7 7 7 7 7
11 11 11 10 10 9 9 9 9 9 8 7 7 7 7 7 7 8 7 7 7 6
9 9 8 8 8 8 8 8 8 7 7 7 7 7 7 7 7 6 6 5 4 4
9 8 7 7 7 6 7 7 7 7 7 7 7 6 6 6 5 4 4 3 2 2
7 6 6 6 6 7 7 7 7 7 7 7 6 5 5 4 3 3 2 2 1 0
6 6 6 7 7 7 8 8 7 6 6 5 4 3 3 3 2 1 -0 -1 -1 -2
7 7 7 7 7 8 7 7 5 4 3 3 3 2 1 1 -0 -1 -2 -2 -3 -3

GFSNIL_925_temp_084.txt.gz
Temp
14 14 15 15 15 16 16 16 16 16 15 15 15 15 14 14 13 11 10 9 9 8
14 15 15 15 16 17 17 16 16 15 14 14 14 14 14 13 11 10 9 9 8 7
15 16 16 16 16 16 16 15 14 14 14 14 13 13 13 11 10 10 10 9 9 8
16 16 16 16 16 16 15 14 12 13 12 12 12 12 12 11 10 10 9 9 7 8
16 16 16 15 14 13 12 12 13 13 12 12 12 12 11 11 10 9 8 8 7 7
17 16 15 14 13 14 15 13 12 13 12 12 12 11 11 10 9 8 8 8 7 8
17 16 15 13 13 14 12 12 12 12 12 11 9 9 8 8 8 8 7 7 7 7
15 14 14 13 14 14 12 12 13 10 9 8 8 7 8 8 7 7 7 6 7 7
13 12 12 12 10 11 10 9 9 8 8 8 7 8 7 7 7 6 6 6 6 6
10 10 11 11 11 9 9 8 8 8 8 7 7 6 6 6 6 6 6 5 5 4
11 10 9 9 8 8 7 7 7 7 7 7 5 5 6 5 5 5 4 3 3 2
9 9 8 7 7 7 7 7 7 7 6 6 5 4 5 5 4 4 3 2 1 1
8 8 7 6 6 6 7 6 6 6 6 5 3 4 4 3 3 2 1 0 -0 -1
7 7 7 6 6 6 6 6 5 5 3 2 2 2 2 1 1 0 -1 -2 -2 -2

GFSNIL_925_temp_087.txt.gz
Temp
12 13 13 14 15 15 16 17 17 17 16 16 15 15 14 14 14 13 12 12 11 10
12 12 13 14 14 15 15 15 16 16 16 16 15 14 14 13 13 12 12 11 11 10
13 13 13 13 13 13 14 14 14 15 15 15 14 13 13 12 12 11 11 11 10 10
13 13 13 13 13 14 14 14 14 14 13 13 12 12 12 13 13 11 10 10 10 10
14 14 14 13 13 13 13 13 13 13 13 12 12 13 11 12 11 10 10 10 9 9
15 14 14 14 13 14 13 12 12 13 12 12 12 11 11 11 11 10 9 9 8 8
15 15 15 14 13 13 12 13 14 12 11 12 11 10 9 9 9 8 8 8 8 7
15 14 14 14 14 13 13 14 14 11 10 11 10 9 8 8 8 7 8 7 6 6
15 14 14 13 13 12 12 11 11 10 10 10 9 9 8 8 7 7 6 5 5 4
12 12 12 12 12 12 11 11 10 9 9 8 8 7 7 7 7 6 5 5 3 3
11 12 12 11 11 11 10 9 8 7 7 7 7 7 6 6 5 5 4 3 3 3
10 10 10 9 8 8 7 7 6 6 6 6 5 5 5 4 3 3 2 2 1 1
9 9 8 8 7 6 6 6 6 5 5 4 3 2 2 3 2 2 1 -0 -1 -1
8 7 7 6 6 6 5 4 3 2 1 1 1 0 0 -1 -1 -1 -2 -2 -2 -3

GFSNIL_925_temp_090.txt.gz
Temp
12 12 13 13 13 14 14 15 16 16 16 16 15 15 15 14 13 13 13 13 13 13
11 12 12 12 13 13 14 14 15 15 15 15 15 15 14 14 14 13 13 13 12 12
12 12 12 12 12 13 13 14 14 15 15 14 14 14 13 13 13 11 11 12 11 11
12 12 13 13 13 13 13 14 15 15 15 14 14 14 12 12 12 11 10 10 10 10
12 12 12 13 13 13 13 14 14 13 13 12 12 12 12 12 11 13 9 9 9 9
13 12 13 13 13 13 13 13 13 12 12 12 12 12 13 12 11 11 9 8 8 9
13 13 13 13 13 13 13 13 13 12 14 12 11 12 12 11 10 9 8 8 8 7
13 13 13 13 13 13 13 12 12 12 12 11 11 10 10 10 9 9 8 7 7 6
13 14 13 13 13 13 12 12 12 12 12 11 10 9 10 10 9 8 7 6 6 6
13 14 13 13 12 12 12 12 12 12 11 11 10 10 9 8 7 6 5 5 4 2
11 11 12 12 12 12 12 11 10 10 9 8 8 8 7 6 6 5 4 3 3 2
11 11 11 10 9 9 8 8 7 6 6 6 5 6 6 6 4 3 1 0 0 -0
9 8 8 7 7 6 7 6 5 4 4 3 2 3 3 3 1 -1 -2 -2 -2 -3
7 7 6 6 5 5 4 3 1 1 -1 -1 -1 -1 -0 -0 -0 -2 -3 -4 -5 -5

GFSNIL_925_temp_093.txt.gz
Temp
12 12 13 13 14 14 14 14 14 14 15 15 15 15 15 15 15 14 14 13 12 11
11 12 12 12 13 13 13 13 14 15 15 15 15 14 14 14 14 14 13 12 12 11
11 11 12 12 12 12 12 12 13 14 14 13 14 14 14 14 13 12 12 11 10 10
11 11 11 11 12 12 12 12 12 13 13 14 14 14 14 13 12 11 11 10 10 11
11 11 11 11 11 12 12 12 13 13 12 12 12 13 13 12 11 11 11 11 10 10
11 11 12 12 12 12 13 13 13 12 12 13 13 14 13 12 11 10 10 10 10 11
13 12 12 12 12 12 12 12 12 12 12 12 12 12 12 11 11 10 10 10 11 10
13 13 12 12 12 12 12 12 12 12 12 12 12 12 12 11 10 10 10 9 9 9
13 12 12 12 12 12 12 12 12 12 12 12 12 12 12 11 10 10 9 8 7 7
12 13 13 12 12 12 12 12 12 12 12 11 11 10 10 10 9 8 7 6 5 5
12 12 12 12 11 11 11 11 10 9 9 9 8 8 8 8 7 5 4 3 2 2
11 11 10 10 9 9 9 8 7 6 6 5 3 4 5 6 3 1 -1 -1 -1 -2
9 9 8 7 7 6 6 4 4 2 1 1 0 1 2 3 0 -1 -2 -3 -3 -4
7 7 6 6 5 5 3 2 0 -1 -2 -2 -1 -1 -1 -1 -1 -3 -4 -4 -5 -5

GFSNIL_925_temp_096.txt.gz
Temp
15 13 14 15 15 14 15 15 15 15 16 16 16 15 15 15 15 14 14 13 13 13
14 14 15 15 15 16 16 16 15 15 15 15 15 15 15 15 15 14 14 14 13 12
14 14 15 15 15 15 16 16 16 15 15 15 15 15 15 15 15 14 14 14 14 13
14 14 14 15 15 15 15 15 15 15 15 15 15 15 15 15 15 15 15 14 13 12
15 15 14 14 15 15 15 15 15 15 15 15 15 15 15 15 14 13 14 12 11 11
15 15 14 14 14 14 14 14 14 14 15 15 15 15 15 14 12 13 12 12 11 11
15 15 15 14 14 14 14 14 14 14 15 15 15 15 15 13 12 12 12 12 11 11
16 15 15 14 14 14 14 14 14 15 15 15 15 14 14 13 12 12 11 11 10 10
16 16 15 15 15 15 15 15 15 15 15 15 14 12 12 12 11 11 10 10 9 9
16 16 16 15 15 15 14 14 14 13 13 12 11 11 11 10 9 9 7 6 5 4
16 15 15 15 15 14 12 11 10 8 8 7 6 7 8 7 6 4 2 1 0 -0
13 12 11 10 8 7 7 6 3 2 2 2 1 2 3 4 1 -0 -2 -2 -2 -2
8 7 6 5 4 3 2 0 -0 -1 -1 -2 -1 -0 0 1 -1 -2 -3 -3 -3 -3
4 4 3 2 1 0 -1 -1 -2 -3 -3 -3 -2 -2 -1 -1 -1 -2 -3 -4 -5 -5

GFSNIL_925_temp_099.txt.gz
Temp
14 14 13 14 14 14 14 14 13 14 15 15 15 15 15 16 16 16 15 14 15 15
15 15 15 14 14 15 15 15 14 15 15 15 15 15 16 15 16 15 15 14 14 14
16 15 15 15 15 15 15 16 15 15 15 15 15 15 15 15 15 15 15 14 14 14
16 16 16 16 16 16 16 16 17 16 16 16 16 16 16 15 15 15 16 16 15 15
16 16 16 16 16 16 16 16 16 16 16 16 16 16 16 16 16 16 16 16 16 15
17 16 16 16 16 16 16 16 16 16 16 16 16 16 16 16 16 16 16 16 15 14
18 17 17 17 16 16 16 16 16 16 16 16 16 16 16 17 16 16 16 14 13 12
18 17 17 17 16 16 16 16 16 16 16 16 16 16 16 16 16 15 14 13 12 10
18 17 17 17 16 16 16 16 16 16 16 16 14 14 15 15 14 12 10 9 7 6
19 18 18 17 17 16 16 16 14 11 11 9 8 9 10 10 8 7 5 4 3 2
19 18 18 17 13 11 12 10 8 6 6 5 3 4 5 6 4 2 0 -0 -1 -1
19 13 9 8 6 5 5 3 1 1 1 1 -0 1 2 3 1 -0 -2 -2 -2 -2
8 6 4 4 2 1 1 -1 -1 -2 -2 -2 -2 -1 -1 -0 -1 -2 -3 -4 -3 -3
4 3 2 1 0 -1 -2 -2 -3 -3 -4 -3 -3 -3 -2 -2 -3 -3 -3 -4 -4 -5

GFSNIL_925_temp_102.txt.gz
Temp
13 13 12 12 12 12 12 12 12 12 12 13 14 15 15 14 15 15 15 15 15 16
13 13 13 13 13 13 12 12 12 12 13 14 15 15 15 15 15 15 16 16 16 16
14 14 13 13 13 13 13 14 13 14 14 14 15 15 15 15 15 15 15 15 15 15
14 15 14 14 14 14 14 14 14 14 15 14 14 15 15 15 15 15 15 15 14 15
15 15 15 14 14 15 15 15 15 15 14 14 15 15 15 15 15 15 15 15 15 15
16 16 16 16 16 16 16 16 16 16 15 15 15 16 16 16 16 16 16 16 16 16
16 16 16 16 16 16 16 16 16 16 16 16 16 16 16 16 16 16 16 15 14 13
17 16 16 16 16 16 16 16 16 16 16 16 16 16 16 16 16 14 13 11 9 6
18 17 17 17 17 16 16 16 16 16 16 14 12 10 14 14 13 11 9 7 3 2
18 18 17 17 17 16 16 12 12 10 10 8 6 7 10 11 8 6 3 1 1 -0
19 18 18 16 11 11 10 8 6 4 3 3 2 3 4 4 3 1 -0 -1 -1 -1
19 10 9 7 6 5 5 3 1 1 0 -0 -1 0 1 2 0 -1 -2 -3 -3 -3
7 6 4 2 2 1 0 -1 -2 -2 -2 -2 -2 -1 -1 -0 -1 -2 -3 -4 -4 -4
3 2 0 -0 -1 -1 -2 -3 -3 -3 -4 -3 -3 -3 -3 -3 -3 -3 -4 -4 -5 -4

GFSNIL_925_temp_108.txt.gz
Temp
13 13 13 13 13 13 13 13 12 12 12 13 14 13 13 12 12 13 14 14 14 14
13 13 13 13 13 13 13 13 12 12 12 13 13 13 12 12 13 13 13 13 14 15
13 13 13 13 12 12 12 12 12 12 12 12 12 11 12 12 13 13 13 14 14 15
13 13 13 13 13 13 12 12 12 12 11 11 12 12 12 12 13 13 13 14 14 15
13 13 13 13 13 12 12 12 12 11 12 12 11 12 12 12 12 13 13 14 14 14
12 13 12 13 13 12 12 12 11 11 11 11 12 12 13 13 13 13 13 13 13 13
12 12 12 12 12 12 12 12 12 12 12 12 12 12 13 13 13 13 12 12 12 10
12 13 13 12 12 13 12 12 13 13 12 12 12 12 12 12 12 12 11 8 7 5
13 13 13 13 13 13 13 12 12 12 12 12 11 12 12 13 12 10 7 4 2 2
14 13 13 13 13 12 12 12 11 10 9 9 8 9 11 11 9 6 2 1 0 -1
13 13 13 13 12 10 9 9 8 6 6 6 3 5 7 8 4 1 -1 -1 -2 -2
14 12 11 9 7 6 6 4 3 2 2 2 -0 1 2 4 -0 -2 -3 -4 -3 -3
11 9 7 5 3 2 2 1 0 -0 -1 -1 -2 -2 -1 -1 -2 -4 -5 -5 -6 -6
7 7 6 3 2 1 -1 -2 -2 -3 -3 -3 -3 -3 -3 -3 -4 -5 -5 -5 -6 -6

GFSNIL_925_temp_111.txt.gz
Temp
14 14 14 14 14 13 13 14 13 13 13 13 13 14 14 14 14 14 14 13 13 14
14 13 13 13 14 13 13 13 13 13 13 13 13 13 13 12 13 13 12 12 12 12
13 12 12 13 13 13 13 13 13 13 13 13 13 13 12 12 13 12 12 12 12 12
13 13 12 12 13 13 13 12 12 12 12 12 12 12 12 12 12 12 11 12 12 12
13 13 12 12 12 12 12 12 12 12 12 12 12 12 12 11 12 11 11 12 12 12
12 13 12 12 12 12 12 12 12 12 12 11 11 11 12 12 11 11 12 11 11 11
12 12 12 12 12 12 12 12 12 11 11 12 11 12 11 11 12 11 11 11 11 10
13 13 13 12 12 12 11 11 11 11 11 11 11 11 11 12 12 11 10 9 7 6
11 12 12 12 12 12 12 12 11 11 11 11 11 12 12 12 11 10 9 6 3 1
12 11 12 12 12 12 12 11 11 11 11 11 11 11 11 11 10 7 4 2 0 -1
12 11 11 11 11 11 10 10 9 8 8 8 7 9 11 10 6 2 -0 -1 -1 -2
13 12 11 10 9 8 8 6 5 4 4 5 2 3 6 8 1 -1 -2 -2 -3 -3
12 11 9 8 6 5 5 3 2 1 0 -1 -2 -2 -1 0 -1 -4 -5 -4 -5 -5
10 8 7 6 5 4 2 0 -1 -2 -2 -3 -3 -3 -4 -4 -5 -5 -5 -6 -7 -7

GFSNIL_925_temp_114.txt.gz
Temp
14 14 14 14 14 14 14 14 14 14 13 13 13 13 13 13 14 15 15 15 15 15
14 14 14 14 14 14 14 14 14 14 14 13 13 13 13 13 13 14 14 13 13 14
14 15 15 14 13 13 13 13 13 13 14 13 13 12 12 12 13 13 12 11 11 11
14 14 14 13 13 13 13 13 13 13 13 13 13 12 12 12 12 12 12 11 11 11
13 13 13 13 12 13 13 13 13 13 13 13 12 12 12 12 12 12 11 11 11 11
12 13 13 13 12 12 12 12 12 12 12 13 12 12 12 12 12 12 12 12 11 11
12 12 12 13 12 12 12 12 12 12 12 12 12 12 12 12 11 11 11 11 11 11
12 12 12 12 12 12 12 12 12 12 12 11 11 11 11 11 11 11 10 9 9 8
12 12 12 12 12 12 12 11 11 11 11 11 11 11 11 11 11 10 9 6 4 3
12 11 12 12 12 11 11 11 11 11 11 11 11 11 11 11 10 8 6 5 2 0
11 11 11 11 11 11 10 10 10 9 9 9 9 10 11 10 7 3 1 -0 -1 -2
13 11 10 10 10 9 8 7 7 6 7 7 3 5 7 9 2 -1 -2 -2 -2 -3
11 11 10 10 8 6 6 4 3 2 1 1 -0 -0 1 3 -0 -3 -4 -5 -5 -5
10 9 9 7 6 4 2 1 -1 -2 -2 -2 -2 -3 -3 -3 -3 -5 -6 -7 -7 -7

GFSNIL_925_temp_117.txt.gz
Temp
14 14 14 14 14 14 14 14 13 13 13 13 13 13 13 13 13 13 14 14 14 16
13 14 14 14 14 14 14 14 14 13 13 13 13 13 13 12 12 13 13 14 14 15
13 13 14 14 14 13 14 14 14 14 13 13 13 13 12 12 12 13 13 13 13 14
13 14 14 14 14 13 13 13 13 13 14 13 13 12 12 12 12 12 12 13 14 13
14 14 14 14 13 12 13 13 13 13 13 13 13 12 12 11 11 12 11 13 13 12
13 14 13 13 13 13 12 12 13 13 13 13 13 13 12 12 11 11 11 11 11 11
13 13 13 13 13 13 12 12 12 12 12 12 12 12 12 12 11 11 11 11 11 11
12 13 13 13 13 12 12 12 12 12 12 12 12 12 12 12 11 11 11 11 10 10
12 12 12 13 12 12 12 12 11 11 11 11 11 11 11 11 12 9 8 7 6 6
12 12 12 12 12 11 11 11 11 11 11 11 11 11 10 10 8 8 6 6 3 2
12 12 11 12 11 11 10 11 10 9 9 9 7 10 10 9 6 3 1 0 -0 -1
12 11 11 11 10 10 9 7 7 6 7 6 3 4 8 8 2 -1 -2 -2 -2 -2
11 10 10 9 7 6 6 4 3 2 2 2 1 1 2 5 1 -3 -4 -5 -5 -5
10 9 8 6 5 4 2 1 -0 -1 -1 -1 -1 -2 -1 -2 -3 -5 -6 -6 -7 -7

GFSNIL_925_temp_120.txt.gz
Temp
16 16 15 16 16 15 14 13 13 12 12 11 11 12 12 13 15 15 16 16 17 17
15 17 17 17 16 15 14 14 13 13 12 12 11 11 11 12 14 14 15 16 16 17
15 17 16 16 16 15 14 14 14 13 13 12 12 11 12 12 13 13 14 15 15 16
16 16 15 14 14 14 14 14 14 14 13 13 12 12 12 11 12 13 14 14 14 14
15 16 15 15 15 14 15 15 14 14 13 13 13 12 12 12 12 13 14 13 13 13
15 16 15 15 14 13 13 13 13 13 13 13 13 12 12 12 12 13 13 13 13 12
15 16 15 15 13 13 13 12 12 13 13 13 13 13 12 12 12 11 12 11 11 11
15 15 15 14 13 13 12 12 12 12 12 12 12 12 12 12 11 11 10 10 11 11
15 15 14 14 12 12 12 12 12 12 12 12 12 12 12 12 11 10 8 7 7 6
15 15 14 13 12 12 12 11 11 11 11 10 9 11 12 11 7 5 6 4 4 3
14 14 14 13 12 11 11 10 10 9 9 8 5 10 9 7 4 3 1 1 0 3
13 13 13 11 10 10 9 7 7 6 6 6 3 5 7 7 2 -0 -2 -2 -1 -0
13 12 10 10 8 6 7 5 4 2 2 2 1 1 4 6 1 -2 -4 -4 -4 -3
11 10 9 7 6 5 3 1 0 -0 -1 -1 -1 -1 -0 1 -0 -3 -5 -6 -6 -7

GFSNIL_925_temp_123.txt.gz
Temp
17 18 19 19 18 18 15 14 13 13 13 13 13 13 13 13 13 13 15 16 18 19
16 17 19 19 17 18 16 14 13 13 12 12 12 12 12 12 13 13 14 14 16 18
14 16 18 18 18 17 17 15 14 13 12 12 12 12 12 12 12 13 13 14 16 17
14 15 17 18 17 17 16 16 14 13 12 12 11 11 11 12 12 13 14 15 16 16
14 15 16 16 17 17 16 15 14 14 13 12 12 11 11 11 12 12 13 14 15 16
14 14 15 16 16 15 15 16 15 14 13 13 12 11 11 11 11 12 13 13 14 15
14 14 15 16 15 15 15 15 15 15 15 14 13 12 12 12 12 12 12 12 14 15
14 14 15 15 15 14 14 14 13 13 13 13 13 13 12 12 12 12 12 12 13 13
13 14 15 15 14 14 14 13 12 12 12 12 12 12 12 12 12 12 11 11 11 11
13 14 15 14 14 14 13 12 12 11 11 11 10 11 12 12 10 7 7 7 6 6
12 14 15 14 13 12 11 11 10 9 9 8 6 9 10 10 6 4 2 3 3 5
12 14 15 13 11 11 10 8 7 6 6 5 2 4 8 8 2 1 0 0 0 1
6 14 13 10 9 7 7 5 4 3 2 2 1 1 4 6 2 -2 -3 -3 -3 -3
6 11 11 9 8 6 4 2 1 -0 -1 -1 -1 -1 -1 0 -0 -3 -5 -5 -6 -6

GFSNIL_925_temp_129.txt.gz
Temp
17 16 17 17 16 16 16 17 16 16 15 16 15 15 14 14 14 14 13 13 13 14
17 16 16 17 17 16 16 17 16 16 16 16 15 14 14 14 14 14 13 13 13 13
15 15 16 16 15 16 16 17 17 16 16 15 15 14 14 13 13 13 13 13 13 13
13 14 15 15 15 15 16 17 17 15 15 15 14 13 13 13 13 13 13 13 13 13
12 12 14 15 15 15 15 16 16 15 15 14 12 12 13 12 12 13 13 13 13 13
10 11 12 14 14 15 15 15 15 14 14 15 12 12 12 12 12 12 13 12 13 13
9 9 10 12 13 14 14 15 15 14 14 15 13 12 12 12 12 12 13 12 12 13
8 8 8 11 13 14 14 15 15 15 14 14 14 13 12 12 12 12 12 13 12 12
7 6 6 8 10 13 14 14 14 14 14 13 13 13 12 13 12 12 12 12 12 12
5 5 5 5 9 13 14 14 14 14 14 13 13 13 13 12 12 11 11 11 12 11
2 2 3 4 6 10 13 13 13 13 13 12 12 12 12 12 11 11 10 10 10 10
1 1 2 3 4 7 11 12 12 11 11 10 10 9 9 11 9 7 5 5 5 5
-0 1 2 2 3 6 8 10 9 7 7 7 6 5 7 8 6 3 1 1 0 2
-1 0 1 2 4 6 5 5 4 4 2 3 3 1 4 4 3 1 -1 -2 -2 -2